Theta_e
324 329 333 337 346 345 344 341 343 345 346 349 349 354 350 351 356 364 347 341 338 341 345 346 348 349 350 345 343 341 339 339 338 337 336 337 339 340 339 339 339 338 341 340 337 335 333 331 330
324 327 332 338 342 342 345 340 345 345 349 349 349 350 344 344 344 351 345 341 342 343 345 346 347 347 347 345 339 337 336 335 335 338 339 337 338 339 339 336 334 335 333 330 327 324 324 323 323
324 327 333 337 336 338 340 342 345 346 347 345 345 344 342 346 343 347 344 342 341 342 345 348 346 345 342 339 338 337 337 340 342 337 334 332 333 332 330 328 327 325 323 316 313 312 311 312 311
326 329 334 335 336 336 340 343 344 345 344 345 344 346 344 347 344 348 344 342 341 341 344 343 339 337 337 338 339 344 344 343 338 331 328 328 327 325 321 316 314 314 316 315 314 313 313 313 313
323 329 332 334 334 337 339 341 342 344 346 345 347 346 352 348 349 346 344 342 341 342 343 342 336 337 339 344 343 339 338 338 329 327 325 320 318 315 313 314 315 315 316 315 314 312 311 310 310
326 330 333 334 334 335 339 341 342 344 344 343 346 345 352 347 347 343 343 341 342 344 342 344 340 342 346 343 338 334 335 329 327 319 316 314 313 315 315 315 316 315 315 313 312 312 311 311 313
325 329 334 332 333 335 338 340 341 342 342 341 343 345 352 347 346 343 343 342 344 344 345 344 345 346 343 337 333 329 327 321 315 314 314 314 315 318 321 317 315 315 313 312 312 312 312 314 317
327 330 333 330 332 333 333 338 340 341 341 342 343 342 352 348 345 343 342 343 345 346 346 346 343 342 339 338 330 325 318 317 317 316 317 319 323 325 323 324 315 314 313 316 316 315 315 315 317
328 331 333 330 330 330 332 335 335 339 341 340 341 342 347 349 344 344 344 344 344 345 347 345 341 339 335 335 331 320 318 318 318 320 325 328 326 327 327 323 321 320 318 318 317 317 317 318 318
329 333 333 330 329 328 329 331 334 337 338 341 341 343 347 350 345 345 345 344 343 343 348 343 339 334 333 331 328 327 325 329 328 328 328 326 327 324 325 325 322 322 320 321 320 319 319 319 317
330 333 332 329 327 327 327 329 331 333 336 336 338 344 349 349 345 345 343 341 341 342 345 342 338 332 330 329 331 329 330 330 329 329 328 325 327 326 324 324 323 323 322 321 320 319 319 319 318
329 329 328 327 326 326 326 329 330 331 333 335 335 341 349 350 348 345 342 340 340 342 343 339 335 333 335 333 331 330 330 329 328 329 327 326 325 325 325 324 324 322 321 321 320 319 319 319 318
329 330 327 326 326 326 328 328 329 331 331 334 332 339 347 350 348 346 342 340 340 342 339 336 337 337 337 334 333 331 330 329 329 327 326 325 324 326 324 324 324 322 321 321 320 319 319 318 317
329 328 327 327 327 328 327 329 329 330 333 333 333 335 343 347 348 347 344 341 341 340 335 337 338 339 338 336 335 332 331 329 327 326 326 323 324 325 325 325 324 322 322 321 319 319 318 317 316
327 327 327 326 327 327 326 327 328 330 329 329 333 334 339 345 345 347 346 345 341 337 337 336 334 333 332 332 330 329 328 327 326 324 323 323 323 324 325 324 323 322 322 320 319 318 317 316 315
325 328 327 327 326 326 325 326 331 329 328 327 329 332 336 342 345 347 342 339 336 333 330 328 328 326 326 325 327 327 325 325 324 323 323 323 323 323 324 324 323 322 321 319 318 317 315 314 314
325 325 327 326 327 326 326 326 329 331 331 331 333 332 335 345 351 344 339 337 335 332 331 329 328 325 323 323 322 326 327 325 326 322 320 321 320 322 323 322 322 321 320 318 317 316 315 314 313
325 325 325 325 327 326 327 328 329 331 333 334 335 337 347 352 349 342 339 336 333 331 330 326 323 323 325 325 325 322 321 321 322 322 323 322 323 322 320 319 319 318 318 317 316 315 313 312 312
325 325 325 327 327 327 327 330 329 332 334 335 337 340 351 348 340 338 334 332 332 330 328 324 326 327 326 321 320 321 323 322 322 323 324 323 322 320 319 319 319 318 317 315 314 313 312 311 311
326 327 329 328 327 327 328 329 330 334 337 337 336 342 349 343 337 333 332 332 330 329 326 326 324 321 320 321 321 321 322 325 325 324 322 321 322 319 318 318 317 315 314 313 313 312 311 311 312
329 328 327 327 327 328 328 329 332 335 337 339 339 339 344 341 334 333 331 330 328 328 327 325 325 322 321 321 321 323 324 325 325 324 324 322 320 319 318 316 314 313 313 312 311 311 313 312 312
330 328 326 327 328 329 327 326 331 335 339 340 341 340 340 338 333 333 332 329 329 328 328 328 325 323 322 324 325 324 324 325 323 323 323 321 319 318 318 315 313 313 312 312 311 312 313 312 312
329 327 328 328 327 327 330 329 333 332 343 344 342 340 337 332 328 326 324 322 321 321 321 323 322 322 322 323 322 320 319 320 322 321 319 317 316 315 314 314 313 312 312 312 313 313 312 311 311
328 328 327 325 325 327 332 330 326 335 334 345 338 335 330 326 321 319 318 317 316 316 316 316 318 318 318 319 319 320 321 319 318 317 316 314 313 313 313 313 312 313 313 313 312 312 312 311 311
327 327 326 327 325 325 329 328 336 337 340 342 336 330 325 320 318 317 316 315 314 314 315 316 316 317 316 316 316 316 316 315 315 314 313 314 312 312 312 313 313 313 313 312 312 313 311 311 311
326 326 329 330 323 324 326 331 342 340 335 333 329 324 320 318 316 316 316 317 316 315 315 315 315 314 313 314 314 314 314 313 313 313 313 312 311 312 311 311 311 312 312 312 313 312 312 311 312
327 328 327 327 331 330 327 335 338 337 337 332 330 323 319 317 317 317 317 316 315 315 315 314 314 314 314 313 313 313 312 312 312 312 312 312 311 312 311 312 312 312 312 312 313 312 312 311 311
328 328 329 329 330 327 326 328 335 331 330 335 331 326 320 319 319 318 317 317 315 315 314 314 314 313 312 312 311 311 311 311 311 311 312 312 312 312 312 312 312 312 312 313 313 312 311 311 309
325 326 328 328 328 329 327 328 330 331 330 334 328 324 322 320 318 318 317 316 315 313 314 313 312 311 311 310 310 310 310 311 311 311 311 311 312 312 312 312 312 312 312 313 312 311 311 311 310
327 328 327 330 330 328 327 330 329 329 329 329 325 322 320 318 318 317 316 314 315 314 312 311 311 310 309 309 309 309 311 311 311 311 311 312 312 312 312 313 313 313 312 312 311 310 310 310 310
Wind_Speed
11 8 11 14 8 5 13 14 4 12 9 6 6 8 5 13 9 4 9 9 12 15 13 12 13 13 12 13 14 15 16 16 17 18 18 17 17 17 16 15 14 14 15 15 14 14 13 12 12
11 10 14 9 14 4 8 8 15 13 11 8 5 6 5 3 4 9 9 11 13 15 14 13 14 13 13 13 15 16 17 18 18 18 18 18 16 17 16 15 15 15 15 14 13 12 12 12 12
11 12 10 16 10 10 10 14 12 12 10 3 7 5 4 8 9 11 14 14 14 14 14 15 15 14 15 16 17 18 18 18 18 18 17 18 18 18 16 14 14 14 14 14 13 13 14 14 14
10 13 10 11 6 13 9 11 13 9 6 1 3 10 3 6 9 13 19 17 15 16 16 17 17 17 17 17 18 17 18 18 18 18 20 18 17 15 15 14 14 14 14 14 14 15 16 16 16
15 9 15 8 7 9 2 11 6 4 6 8 6 11 11 8 12 19 19 17 16 17 16 16 18 18 18 17 17 17 18 18 19 18 17 17 16 16 15 14 13 13 13 14 14 15 16 17 17
11 13 16 6 12 5 3 8 4 3 5 11 2 12 10 13 19 19 18 16 16 17 17 16 18 17 16 16 17 17 19 19 17 17 17 17 16 14 13 13 12 12 13 13 14 16 17 19 18
17 12 10 8 8 8 5 3 7 5 7 12 5 7 10 15 17 19 18 17 15 18 16 16 15 15 16 17 18 19 18 18 18 17 16 15 14 13 13 11 11 11 12 13 16 18 20 20 18
12 14 5 3 4 12 8 5 3 6 8 10 7 9 20 15 19 19 17 17 16 16 17 17 15 16 15 15 18 17 18 17 16 14 11 9 11 10 13 14 11 11 14 15 20 22 21 23 21
13 12 9 6 6 9 8 7 8 4 4 6 7 9 15 22 21 19 17 17 17 16 18 17 16 16 17 15 14 16 15 12 10 9 8 4 4 3 6 8 12 13 17 16 20 21 22 22 24
14 10 9 8 6 8 5 5 9 6 9 10 7 10 15 20 21 20 19 18 18 17 22 18 16 17 17 15 13 10 9 5 3 3 2 2 3 4 5 5 11 15 15 15 21 20 20 22 26
14 8 10 3 4 8 10 5 1 6 11 13 15 17 16 18 20 19 19 19 19 18 17 20 15 13 14 14 12 8 5 3 2 1 3 3 4 7 9 9 12 13 14 18 20 21 22 24 26
9 4 3 7 4 5 8 3 3 7 15 10 10 16 19 17 16 19 19 18 20 20 18 17 16 14 5 11 8 5 4 3 4 3 3 4 7 7 9 11 13 14 16 19 22 24 24 25 27
13 5 3 3 2 1 3 6 7 6 8 9 6 13 17 17 18 19 19 20 21 21 20 18 15 11 9 6 5 0 2 1 4 2 3 7 8 8 11 12 13 15 16 20 23 24 25 27 29
7 5 2 4 3 4 9 9 2 3 10 14 5 10 15 16 19 21 21 20 22 24 19 19 16 12 10 7 5 4 4 5 3 4 6 8 10 11 12 15 15 16 15 20 23 24 26 28 29
8 13 13 8 2 4 9 17 7 10 6 10 14 14 10 14 19 22 27 14 25 25 22 18 16 13 13 13 9 8 5 5 4 6 6 8 10 12 14 17 17 16 16 20 23 24 27 30 35
13 15 13 12 1 7 8 7 10 8 9 9 13 12 12 15 14 28 27 43 28 26 24 14 13 16 13 11 12 7 2 4 4 5 6 10 11 14 15 18 19 17 20 23 25 27 29 32 32
11 14 17 10 7 7 8 16 13 9 10 10 10 12 11 11 24 27 32 29 28 19 12 11 20 17 19 15 11 4 2 4 5 7 8 11 15 14 14 17 19 16 23 23 24 24 28 28 27
4 3 5 6 10 12 13 11 6 7 9 8 5 10 13 22 20 21 22 22 21 16 15 14 18 13 12 10 6 4 9 6 6 12 12 11 11 12 12 14 16 18 19 20 21 21 21 22 23
6 7 6 7 8 10 16 9 2 4 6 9 8 2 19 20 21 18 18 17 20 19 15 17 17 11 6 5 1 7 11 8 10 12 11 6 10 11 13 15 17 18 17 22 18 18 20 19 20
6 8 9 8 3 8 14 10 8 3 8 11 10 10 16 14 13 15 16 16 18 16 16 16 15 5 3 0 1 4 13 11 11 18 11 9 7 10 13 13 13 17 21 16 12 14 16 17 15
5 6 10 14 15 17 13 14 14 11 10 11 14 11 18 12 10 9 12 14 15 15 15 14 7 4 3 7 8 9 12 15 14 13 7 8 8 13 10 13 15 16 13 11 12 12 13 15 18
7 11 13 15 15 14 18 12 13 14 13 13 15 12 14 13 9 10 13 13 16 15 9 5 3 8 8 7 6 7 12 15 14 14 14 9 12 15 14 8 12 11 10 8 11 13 12 13 16
14 13 15 19 20 15 13 7 13 9 17 16 15 17 14 16 15 14 15 14 13 12 11 7 6 5 6 7 9 11 13 13 13 12 13 14 19 14 14 5 8 11 10 11 10 11 13 14 14
11 16 20 23 18 12 13 4 4 10 3 16 15 13 12 12 12 15 14 15 17 16 12 11 10 12 9 7 6 8 11 13 15 16 17 17 13 13 3 3 8 10 10 10 11 10 9 12 12
17 16 11 7 9 9 5 5 12 13 13 18 16 11 10 10 10 9 10 11 12 10 9 7 7 5 6 9 10 12 12 13 15 14 14 12 14 8 5 8 11 11 10 12 12 10 10 10 9
20 10 8 12 13 14 18 7 1 15 15 20 16 13 11 9 6 6 4 6 7 3 6 11 12 14 13 12 13 12 11 12 12 7 9 13 12 13 9 11 13 13 11 11 12 10 8 9 8
10 11 14 10 19 13 7 15 12 16 10 12 14 13 11 9 8 7 8 11 9 9 9 10 11 13 15 13 11 11 9 10 11 11 10 14 11 13 12 13 14 14 13 12 10 10 8 9 7
5 7 9 6 10 10 12 8 7 11 11 15 12 13 12 9 7 7 8 12 12 12 15 15 14 15 15 13 10 11 11 9 9 10 10 11 12 13 14 14 15 13 12 9 8 9 7 7 9
12 8 8 8 8 9 11 7 10 10 13 14 14 12 11 10 8 13 16 13 12 12 15 18 17 17 13 13 12 13 11 10 10 12 13 14 15 14 15 14 14 12 9 7 7 8 9 9 9
8 4 6 7 11 11 11 5 11 12 14 14 13 10 11 13 10 11 10 8 12 17 17 17 14 14 13 12 13 13 9 11 13 13 14 14 14 15 14 12 10 6 5 5 8 10 10 10 12
Wind_Direction
301 289 268 263 248 277 5 82 317 46 64 36 21 21 47 31 9 55 130 135 123 117 127 127 127 128 128 133 133 132 129 126 123 119 115 109 105 101 98 96 92 86 79 73 67 61 52 42 34
287 276 259 272 249 129 196 68 60 64 93 90 114 151 127 97 68 110 123 126 112 122 129 130 133 136 138 141 138 135 132 129 126 120 115 111 105 104 102 97 89 79 74 66 57 48 39 29 18
277 261 270 247 257 25 54 68 87 99 127 183 106 360 123 91 116 140 135 140 133 129 127 134 137 143 143 140 139 137 133 129 127 121 117 115 114 111 103 94 85 77 67 54 47 38 28 20 11
263 230 246 255 1 64 33 80 107 133 125 245 93 125 127 46 131 138 147 147 140 139 133 140 142 145 144 144 143 140 137 135 129 123 119 114 108 104 97 87 75 67 59 52 39 28 22 14 6
239 261 252 258 72 82 46 107 133 138 102 134 243 116 79 94 118 138 146 148 146 138 134 139 146 150 149 148 148 144 140 135 129 124 117 112 108 100 89 80 69 59 49 38 29 20 13 5 359
238 244 261 204 89 114 74 129 180 44 126 104 255 112 90 122 135 146 150 152 150 137 142 144 151 153 150 148 145 141 138 134 128 123 119 113 104 96 83 69 56 47 38 31 22 15 6 360 356
250 235 270 25 84 135 92 157 166 173 145 143 127 123 114 156 149 154 154 153 146 142 139 145 149 152 153 149 146 138 136 131 127 121 114 105 94 83 65 52 49 35 28 23 16 11 7 8 1
268 271 261 236 197 94 100 170 183 262 153 83 240 131 159 156 156 154 158 151 160 147 152 151 150 147 143 140 148 143 139 132 123 114 98 88 78 66 59 35 26 22 19 14 10 9 11 6 356
248 262 185 139 260 117 135 217 125 186 285 212 178 24 119 141 161 159 157 164 163 164 143 156 151 155 146 139 140 137 132 121 109 95 73 54 41 55 60 13 15 15 14 5 7 0 0 358 348
236 255 81 62 19 310 146 250 123 191 202 186 181 105 133 151 168 168 169 175 171 175 150 155 153 157 143 141 144 141 153 137 126 96 63 38 16 19 2 343 6 3 3 343 356 346 345 343 337
234 336 64 154 13 322 303 184 199 218 235 205 187 154 150 171 177 180 182 181 175 176 158 144 157 157 154 149 159 160 164 162 144 90 9 359 347 2 352 350 348 347 345 344 338 336 335 334 330
265 355 9 5 325 280 253 347 208 239 281 358 200 168 151 183 183 192 190 183 171 170 156 144 160 159 114 146 184 152 184 196 234 86 349 353 334 356 349 351 343 343 343 340 338 332 331 327 326
245 145 244 67 222 242 16 254 284 276 241 178 294 162 156 187 194 198 196 187 178 159 152 150 148 148 144 143 99 268 351 332 33 301 14 355 339 353 343 339 334 336 339 340 334 328 328 325 325
211 291 240 233 95 189 269 275 229 252 8 307 182 273 161 196 202 199 200 196 176 138 149 134 129 124 133 103 83 51 9 355 312 312 0 351 347 345 338 329 332 335 338 335 329 326 324 322 322
259 245 200 205 334 61 319 265 207 17 325 286 290 217 193 204 217 212 193 157 118 123 117 124 127 121 114 94 90 62 2 321 338 358 4 343 341 336 331 328 330 334 333 329 325 326 324 324 322
241 236 280 111 267 127 251 296 72 8 332 303 299 275 220 213 212 36 60 90 102 116 134 134 138 134 143 131 96 77 24 326 315 303 318 339 335 333 327 331 333 333 330 326 327 327 322 320 320
202 255 224 144 105 307 228 301 62 22 347 339 317 293 258 82 58 68 94 108 122 123 110 116 111 109 104 102 88 152 273 262 280 294 313 296 303 321 326 326 327 327 324 324 324 321 320 321 320
12 243 241 246 55 341 303 312 26 4 348 354 347 316 46 62 60 71 74 88 103 112 119 126 120 102 93 120 164 251 254 278 325 321 327 314 319 323 331 320 322 325 324 320 321 319 324 319 310
353 318 305 28 52 298 303 298 271 349 10 15 358 39 61 71 67 74 88 102 114 116 126 118 107 101 113 109 217 268 304 309 318 321 291 315 306 322 323 321 321 329 326 316 319 325 323 318 320
299 300 20 308 205 275 284 282 218 107 55 46 26 46 88 84 87 91 102 106 116 131 134 130 125 74 71 292 285 309 308 306 303 287 281 287 294 314 309 321 324 322 314 321 335 329 318 314 323
202 354 348 320 314 289 291 263 153 135 92 79 76 47 92 85 93 111 124 133 125 133 132 118 93 29 348 299 297 299 293 287 270 270 273 301 297 302 308 322 317 319 316 331 324 315 317 317 324
324 14 325 309 306 304 314 297 192 149 134 97 80 67 64 86 107 112 127 117 98 62 65 51 336 347 343 322 324 318 299 298 297 297 294 291 304 298 288 294 318 313 318 306 323 311 321 319 317
348 321 293 292 286 280 304 227 140 179 79 87 75 61 62 62 62 59 60 61 62 57 54 35 10 317 303 307 293 294 295 291 287 306 310 307 299 292 293 306 308 299 298 309 307 316 327 330 322
293 309 311 277 257 250 121 301 309 128 111 101 87 74 69 67 68 65 59 59 55 55 47 37 37 24 339 327 324 307 302 308 303 306 306 299 310 301 356 299 296 286 283 304 310 313 317 322 324
351 313 316 325 335 316 104 287 54 66 64 100 99 87 73 73 73 80 89 86 72 39 18 1 351 337 326 338 325 315 308 307 300 302 305 325 303 332 317 304 292 295 294 296 298 299 312 325 335
299 339 295 332 313 310 280 350 307 77 63 90 94 95 89 91 113 116 150 180 143 85 17 4 355 344 338 335 326 315 313 310 305 343 331 303 308 308 313 293 291 291 290 289 298 304 320 331 334
342 313 339 286 261 266 324 100 57 46 99 96 106 108 104 111 105 115 85 52 27 3 4 350 345 338 335 334 320 317 321 312 312 307 305 302 301 304 296 299 293 293 291 292 296 308 308 320 331
279 316 342 321 319 308 311 357 40 16 22 120 113 107 117 133 119 82 62 24 359 355 355 351 341 338 328 326 331 317 307 300 296 296 299 297 299 295 293 293 289 292 297 303 303 311 297 303 319
316 315 1 311 279 318 306 14 49 20 23 78 95 95 96 77 52 28 12 359 345 341 342 341 336 331 343 341 333 311 316 310 313 315 310 311 304 295 294 292 296 304 309 300 303 307 295 296 308
289 302 352 323 315 320 290 308 52 30 44 66 81 88 80 45 17 4 343 324 336 357 341 329 355 344 329 314 298 296 321 329 317 317 317 316 314 313 309 306 301 305 299 305 314 325 322 303 299